Regional Weather Roundup
Issued by NWS

Home | Current Version | Previous Version | Graphics & Text | Print | Product List | Glossary Off
Versions: 1 2 3 4 5 6 7 8 9 10 11 12 13 14 15 16 17 18 19 20 21 22 23 24 25 26 27 28 29 30 31 32 33 34 35 36 37 38 39 40 41 42 43 44 45 46 47 48 49 50

000
ASUS43 KMKX 300611
RWRWI

WISCONSIN REGIONAL WEATHER ROUNDUP
NATIONAL WEATHER SERVICE MILWAUKEE/SULLIVAN WI
100 AM CDT THU JUL 30 2015

NOTE: "FAIR" INDICATES FEW OR NO CLOUDS BELOW 12,000 FEET WITH NO
SIGNIFICANT WEATHER AND/OR OBSTRUCTIONS TO VISIBILITY.

WIZ001-002-006>008-014>016-023>028-300700-
NORTHWEST WISCONSIN

CITY           SKY/WX    TMP DP  RH WIND       PRES   REMARKS
SUPERIOR ARPT  CLEAR     64  55  74 SW9       29.87S
6HR MIN TEMP:  64; 6HR MAX TEMP:  77;

ASHLAND        CLEAR     66  54  65 SW9       29.86R
6HR MIN TEMP:  66; 6HR MAX TEMP:  76;

HAYWARD        CLEAR     66  53  63 SW7       29.92S
6HR MIN TEMP:  66; 6HR MAX TEMP:  78;

SIREN          CLEAR     67  54  61 W8        29.95R
6HR MIN TEMP:  67; 6HR MAX TEMP:  78;

CUMBERLAND     CLEAR     63  54  72 W9        29.96S
RICE LAKE      CLEAR     65  55  69 SW8       29.97S
6HR MIN TEMP:  64; 6HR MAX TEMP:  76;

CHETEK         CLEAR     68  55  64 SW7       29.95S
6HR MIN TEMP:  66; 6HR MAX TEMP:  77;

LADYSMITH      CLEAR     66  55  65 W8        29.96R
6HR MIN TEMP:  66; 6HR MAX TEMP:  77;

EAU CLAIRE     CLEAR     65  55  70 SW8       29.97R
6HR MIN TEMP:  64; 6HR MAX TEMP:  79;

MENOMONIE      CLEAR     67  56  66 SW8       29.98S
6HR MIN TEMP:  67; 6HR MAX TEMP:  79;

NEW RICHMOND   CLEAR     67  54  62 W12       29.99S
6HR MIN TEMP:  65; 6HR MAX TEMP:  78;

OSCEOLA        CLEAR     68  56  64 W9        30.00S
6HR MIN TEMP:  67; 6HR MAX TEMP:  78;

$$

WIZ003>005-009-010-017-018-300700-
NORTH CENTRAL WISCONSIN

CITY           SKY/WX    TMP DP  RH WIND       PRES   REMARKS
MANITOWISH WTR CLEAR     63  55  73 W7        29.89S
6HR MIN TEMP:  63; 6HR MAX TEMP:  72;

ARBOR VITAE    CLEAR     65  54  66 W7        29.91R
6HR MIN TEMP:  65; 6HR MAX TEMP:  73;

WOODRUFF       CLEAR     65  54  66 W7        29.91R
6HR MIN TEMP:  65; 6HR MAX TEMP:  73;

RHINELANDER    PTCLDY    67  53  61 W14G22    29.92S
6HR MIN TEMP:  65; 6HR MAX TEMP:  75;

EAGLE RIVER    CLEAR     65  51  61 W12G17    29.89R
6HR MIN TEMP:  65; 6HR MAX TEMP:  74;

LAND O LAKES   CLEAR     66  52  61 W8        29.89R
6HR MIN TEMP:  66; 6HR MAX TEMP:  73;

PHILLIPS       PTCLDY    64  55  70 W5        29.92S
6HR MIN TEMP:  64; 6HR MAX TEMP:  75;

TOMAHAWK       PTCLDY    64  53  68 W7        29.94R
6HR MIN TEMP:  64; 6HR MAX TEMP:  74;

MEDFORD        CLEAR     63  56  79 W7        29.96R
6HR MIN TEMP:  63; 6HR MAX TEMP:  74;

MERRILL        NOT AVBL
$$

WIZ029-030-035-036-043>047-300700-
CENTRAL WISCONSIN

CITY           SKY/WX    TMP DP  RH WIND       PRES   REMARKS
WAUSAU         CLEAR     69  55  60 W17       29.93R
6HR MIN TEMP:  69; 6HR MAX TEMP:  79;

MOSINEE        CLEAR     64  55  72 W10       29.96S
MARSHFIELD     CLEAR     64  53  67 W8        29.97R
6HR MIN TEMP:  64; 6HR MAX TEMP:  77;

STEVENS POINT  CLEAR     67  53  60 W8G17     29.96S
6HR MIN TEMP:  67; 6HR MAX TEMP:  77;

WAUPACA        CLEAR     67  56  67 SW6       29.95S
6HR MIN TEMP:  66; 6HR MAX TEMP:  82;

WAUTOMA        CLEAR     66  54  65 SW5       29.97S
6HR MIN TEMP:  66; 6HR MAX TEMP:  83;

WISC RAPIDS    CLEAR     67  53  61 W8        29.98R
6HR MIN TEMP:  66; 6HR MAX TEMP:  80;

CAMP DOUGLAS   CLEAR     68  57  67 W10       29.99S
6HR MIN TEMP:  68; 6HR MAX TEMP:  78;

$$

WIZ011>013-019>022-031-037>040-048>050-300700-
NORTHEAST WISCONSIN

CITY           SKY/WX    TMP DP  RH WIND       PRES   REMARKS
ANTIGO         CLEAR     64  55  70 W9        29.93S
SHAWANO        CLEAR     69  55  62 SW6       29.91S
6HR MIN TEMP:  69; 6HR MAX TEMP:  81;

OCONTO         CLEAR     68  56  66 W7        29.88S
6HR MIN TEMP:  68; 6HR MAX TEMP:  79;

STURGEON BAY   CLEAR     72  55  56 SW13      29.90S
6HR MIN TEMP:  72; 6HR MAX TEMP:  79;

GREEN BAY      CLEAR     70  55  59 SW9       29.92R
6HR MIN TEMP:  70; 6HR MAX TEMP:  80;

MANITOWOC      CLEAR     69  57  65 MISG      29.93S
6HR MIN TEMP:  68; 6HR MAX TEMP:  83;

APPLETON       CLEAR     66  54  63 W9        29.94S
CLINTONVILLE   CLEAR     64  54  68 SW6       29.92S
OSHKOSH        CLEAR     71  53  52 VRB7      29.95S
6HR MIN TEMP:  70; 6HR MAX TEMP:  81;

$$

WIZ032>034-041-042-053>061-300700-
SOUTHWEST WISCONSIN

CITY           SKY/WX    TMP DP  RH WIND       PRES   REMARKS
LA CROSSE      CLEAR     73  54  51 NW9       30.01R
6HR MIN TEMP:  73; 6HR MAX TEMP:  82;

SPARTA         CLEAR     65  54  66 W3        30.01S
6HR MIN TEMP:  64; 6HR MAX TEMP:  80;

VIROQUA        CLEAR     62  57  83 SW7       30.05R
6HR MIN TEMP:  62; 6HR MAX TEMP:  77;

BOSCOBEL       CLEAR     61  58  90 S5        30.04S
6HR MIN TEMP:  61; 6HR MAX TEMP:  82;

PRAIRIE DU CHI CLEAR     67  57  70 NW5       30.05R
6HR MIN TEMP:  66; 6HR MAX TEMP:  82;

PLATTEVILLE    CLEAR     63  59  87 W6        30.06S
6HR MIN TEMP:  63; 6HR MAX TEMP:  79;

$$

WIZ056-057-062-063-064-067-068-300700-
SOUTH CENTRAL WISCONSIN

CITY           SKY/WX    TMP DP  RH WIND       PRES   REMARKS
REEDSBURG      CLEAR     66  56  70 SW7       30.01S
6HR MIN TEMP:  66; 6HR MAX TEMP:  80;

BARABOO/DELLS  CLEAR     68  53  57 W5        30.01S
6HR MIN TEMP:  67; 6HR MAX TEMP:  81;

LONE ROCK      CLEAR     58  54  86 CALM      30.03S
6HR MIN TEMP:  58; 6HR MAX TEMP:  81;

MINERAL POINT  CLEAR     64  57  77 W7        30.06R
MADISON        CLEAR     70  55  59 VRB3      30.01S
6HR MIN TEMP:  70; 6HR MAX TEMP:  81;

MIDDLETON      CLEAR     66  54  65 W8        30.02S
6HR MIN TEMP:  65; 6HR MAX TEMP:  81;

WATERTOWN      CLEAR     65  56  72 SW5       30.00S
6HR MIN TEMP:  65; 6HR MAX TEMP:  79;

MONROE         CLEAR     66  57  72 W14       30.05S
JANESVILLE     CLEAR     64  54  68 W5        30.02S
$$

WIZ051-052-058>065-066-070>072-300700-
SOUTHEAST WISCONSIN

CITY           SKY/WX    TMP DP  RH WIND       PRES   REMARKS
MILWAUKEE      CLEAR     72  53  51 W8        29.99S
6HR MIN TEMP:  72; 6HR MAX TEMP:  84;

WAUKESHA       CLEAR     66  52  59 W9        30.00F
MILWAUKEE/TIMM CLEAR     66  52  59 W6        29.99F
RACINE         CLEAR     69  54  58 W7        30.01S
6HR MIN TEMP:  69; 6HR MAX TEMP:  82;

BURLINGTON     CLEAR     60  54  80 SW5       30.01S
6HR MIN TEMP:  59; 6HR MAX TEMP:  78;

KENOSHA        CLEAR     64  55  72 W7        30.01S
6HR MIN TEMP:  63; 6HR MAX TEMP:  80;

FOND DU LAC    CLEAR     65  54  67 SW6       29.97S
6HR MIN TEMP:  65; 6HR MAX TEMP:  81;

SHEBOYGAN      CLEAR     64  54  69 SW6       29.95S
6HR MIN TEMP:  62; 6HR MAX TEMP:  81;

WEST BEND      CLEAR     68  52  56 W9        29.98S
JUNEAU         CLEAR     62  55  76 SW7       30.00S
6HR MIN TEMP:  62; 6HR MAX TEMP:  78;

$$

LSZ147-162-300700-
LAKE SUPERIOR

STATION/POSITION TIME  TEMP    WIND        PRES    WAVE
                       AIR SEA DIR/SP/G            HT/PER
                 (UTC) (F)     (DEG/KT/KT) (MB)    (FT/S)
W MID LAKE BUOY  0550   62 55  240/ 17/ 19 1007.3R   4/ 5
DEVILS ISLAND    0600   65     240/ 21/ 23 1009.3R
PORT WING        0500   73     250/ 15/ 21 1010.8R
SAXON HARBOR     0540   71                 1010.5R
$$

LMZ867-665-643>646-300700-
LAKE MICHIGAN

STATION/POSITION TIME  TEMP    WIND        PRES    WAVE
                       AIR SEA DIR/SP/G            HT/PER


USA.gov is the U.S. government's official web portal to all federal, state and local government web resources and services.